Time,TemperatureF,DewpointF,PressureIn,WindDirection,WindDirectionDegrees,WindSpeedMPH,WindSpeedGustMPH,Humidity,HourlyPrecipIn,Conditions,Clouds,dailyrainin,SoftwareType,DateUTC
2013-07-02 12:45:00,80.8,62.6,30.15,South,188,0.0,0.0,54,0.00,,---,0.00,VWS V14.01,2013-07-02 16:45:00,
2013-07-02 12:46:00,80.8,62.6,30.15,ESE,111,7.2,7.2,54,0.00,,---,0.00,VWS V14.01,2013-07-02 16:46:00,
2013-07-02 12:48:00,80.8,63.1,30.15,SSW,202,0.0,0.0,55,0.00,,---,0.00,VWS V14.01,2013-07-02 16:48:00,
2013-07-02 12:50:00,81.0,63.3,30.15,SSE,154,8.6,9.3,55,0.00,,---,0.00,VWS V14.01,2013-07-02 16:50:00,
2013-07-02 12:53:00,81.3,64.7,30.15,South,175,7.9,10.0,57,0.00,,---,0.00,VWS V14.01,2013-07-02 16:53:00,
2013-07-02 12:59:00,81.7,65.0,30.15,SSE,168,0.0,0.0,57,0.00,,---,0.00,VWS V14.01,2013-07-02 16:59:00,
2013-07-02 13:04:00,82.0,65.3,30.15,SSE,166,4.3,5.0,57,0.00,,---,0.00,VWS V14.01,2013-07-02 17:04:00,
2013-07-02 13:09:00,82.2,65.0,30.15,West,264,7.9,9.3,56,0.00,,---,0.00,VWS V14.01,2013-07-02 17:09:00,
2013-07-02 13:14:00,82.4,64.1,30.15,South,173,3.6,5.0,54,0.00,,---,0.00,VWS V14.01,2013-07-02 17:14:00,
2013-07-02 13:20:00,82.6,63.2,30.15,SSW,194,8.6,12.2,52,0.00,,---,0.00,VWS V14.01,2013-07-02 17:20:00,
2013-07-02 13:25:00,82.6,62.1,30.15,SW,230,0.0,6.4,50,0.00,,---,0.00,VWS V14.01,2013-07-02 17:25:00,
2013-07-02 13:31:00,83.1,63.1,30.15,SE,141,9.3,13.2,51,0.00,,---,0.00,VWS V14.01,2013-07-02 17:31:00,
2013-07-02 13:36:00,83.8,62.7,30.15,SSE,168,5.7,8.6,49,0.00,,---,0.00,VWS V14.01,2013-07-02 17:36:00,
2013-07-02 13:42:00,84.4,61.4,30.15,SW,232,4.3,6.4,46,0.00,,---,0.00,VWS V14.01,2013-07-02 17:42:00,
2013-07-02 13:47:00,84.9,60.0,30.15,SSW,207,5.0,7.9,43,0.00,,---,0.00,VWS V14.01,2013-07-02 17:47:00,
2013-07-02 13:53:00,85.5,59.8,30.15,West,264,10.0,10.0,42,0.00,,---,0.00,VWS V14.01,2013-07-02 17:53:00,
2013-07-02 13:58:00,85.8,59.4,30.15,West,266,5.0,5.7,41,0.00,,---,0.00,VWS V14.01,2013-07-02 17:58:00,
2013-07-02 14:03:00,86.0,58.9,30.15,SSW,203,8.6,8.6,40,0.00,,---,0.00,VWS V14.01,2013-07-02 18:03:00,
2013-07-02 14:09:00,86.2,58.3,30.15,SW,216,6.4,13.2,39,0.00,,---,0.00,VWS V14.01,2013-07-02 18:09:00,
2013-07-02 14:14:00,86.2,56.9,30.15,SE,129,5.7,8.6,37,0.00,,---,0.00,VWS V14.01,2013-07-02 18:14:00,
2013-07-02 14:20:00,85.8,55.8,30.15,South,171,9.3,10.0,36,0.00,,---,0.00,VWS V14.01,2013-07-02 18:20:00,